GW6099 Weather Reports


time (UTC)temp
C
wind
direction
speed
KPH
gust
KPH
rain 1hr
cm
rain 24hr
cm
rain mn
cm
humidity
%
barometer
mb
20260906154539 33 4 3.2 8.0 0.00 0.00 0.00 53 1016.8
20260906153005 33 141 0.0 8.0 0.00 0.00 0.00 58 1016.8
20260906151508 32 276 0.0 8.0 0.00 0.00 0.00 60 1016.6
20260906150019 31 204 0.0 3.2 0.00 0.00 0.00 64 1016.5
20260906144520 30 20 0.0 3.2 0.00 0.00 0.00 68 1016.8
20260906143031 28 315 0.0 3.2 0.00 0.00 0.00 70 1017.1
20260906141503 27 357 0.0 1.6 0.00 0.00 0.00 74 1017.2
20260906140012 26 29 0.0 1.6 0.00 0.00 0.00 78 1017.0
20260906134515 25 32 0.0 1.6 0.00 0.00 0.00 82 1016.8
20260906133023 25 146 0.0 1.6 0.00 0.00 0.00 86 1016.6
20260906131526 23 279 0.0 1.6 0.00 0.00 0.00 91 1016.6
20260906130015 22 127 0.0 0.0 0.00 0.00 0.00 95 1016.5
20260906124516 21 139 0.0 1.6 0.00 0.00 0.00 96 1016.4
20260906123026 20 158 0.0 0.0 0.00 0.00 0.00 96 1016.1
20260906121523 19 118 0.0 0.0 0.00 0.00 0.00 96 1016.1
20260906120030 19 117 0.0 0.0 0.00 0.00 0.00 96 1015.8
20260906114511 19 118 0.0 0.0 0.00 0.00 0.00 96 1015.7
20260906113027 19 118 0.0 0.0 0.00 0.00 0.00 95 1015.8
20260906111527 19 118 0.0 0.0 0.00 0.00 0.00 95 1015.7
20260906110029 19 118 0.0 0.0 0.00 0.00 0.00 95 1015.7
20260906104531 20 118 0.0 0.0 0.00 0.00 0.00 95 1015.7
20260906103034 20 118 0.0 0.0 0.00 0.00 0.00 95 1015.6
20260906101520 20 118 0.0 0.0 0.00 0.00 0.00 95 1015.5
20260906100026 20 118 0.0 0.0 0.00 0.00 0.00 95 1015.4
20260906094534 20 118 0.0 0.0 0.00 0.00 0.00 95 1015.3
20260906093033 20 118 0.0 0.0 0.00 0.00 0.00 95 1015.3
20260906091525 20 118 0.0 1.6 0.00 0.00 0.00 95 1015.2
20260906090025 20 117 0.0 0.0 0.00 0.00 0.00 94 1015.1
20260906084516 20 117 0.0 0.0 0.00 0.00 0.00 94 1015.0
20260906083014 20 117 0.0 0.0 0.00 0.00 0.00 94 1014.9
20260906081530 20 117 0.0 0.0 0.00 0.00 0.00 94 1014.7
20260906080023 20 117 0.0 0.0 0.00 0.00 0.00 94 1014.9
20260906074524 21 117 0.0 0.0 0.00 0.00 0.00 94 1014.8
20260906073008 21 117 0.0 1.6 0.00 0.00 0.00 93 1015.0
20260906071510 21 117 0.0 1.6 0.00 0.00 0.00 93 1015.1
20260906070017 21 113 0.0 0.0 0.00 0.00 0.00 93 1015.2
20260906064532 21 113 0.0 0.0 0.00 0.00 0.00 92 1015.4
20260906063030 21 113 0.0 0.0 0.00 0.00 0.00 93 1015.5
20260906061508 21 113 0.0 1.6 0.00 0.00 0.00 92 1015.4
20260906060015 21 161 0.0 1.6 0.00 0.00 0.00 92 1015.5
20260906054523 21 109 0.0 1.6 0.00 0.00 0.00 92 1015.4
20260906053030 22 135 0.0 0.0 0.00 0.00 0.00 92 1015.5
20260906051534 22 135 0.0 0.0 0.00 0.00 0.00 91 1015.3
20260906050026 22 135 0.0 0.0 0.00 0.00 0.00 91 1015.3
20260906044518 22 135 0.0 0.0 0.00 0.00 0.00 90 1015.4
20260906043023 22 136 0.0 0.0 0.00 0.00 0.00 90 1015.5
20260906041528 22 135 0.0 1.6 0.00 0.00 0.00 89 1015.5
20260906040038 22 134 1.6 1.6 0.00 0.00 0.00 88 1015.4
20260906034514 23 122 0.0 1.6 0.00 0.00 0.00 88 1015.3
20260906033025 23 121 0.0 1.6 0.00 0.00 0.00 87 1015.2
20260906031527 23 122 0.0 1.6 0.00 0.00 0.00 85 1015.3
20260906030032 23 122 0.0 0.0 0.00 0.00 0.00 83 1015.2
20260906024537 24 121 0.0 3.2 0.00 0.00 0.00 82 1014.9
20260906023018 25 124 1.6 3.2 0.00 0.00 0.00 81 1014.7
20260906021524 25 115 1.6 3.2 0.00 0.00 0.00 80 1014.5
20260906020031 25 141 1.6 4.8 0.00 0.00 0.00 78 1014.3
20260906014534 26 113 1.6 4.8 0.00 0.00 0.00 75 1014.3
20260906013033 26 158 0.0 0.0 0.00 0.00 0.00 69 1014.0
20260906011523 27 158 0.0 0.0 0.00 0.00 0.00 69 1013.8
20260906010024 27 159 0.0 1.6 0.00 0.00 0.00 68 1013.9
20260906004533 27 318 0.0 3.2 0.00 0.00 0.00 68 1013.7
20260906003030 28 124 0.0 6.4 0.00 0.00 0.00 66 1013.6
20260906001503 29 99 1.6 3.2 0.00 0.00 0.00 63 1013.5
20260906000004 30 205 1.6 3.2 0.00 0.00 0.00 57 1013.8
20260905234504 31 2 4.8 9.7 0.00 0.00 0.00 54 1013.8
20260905233012 32 152 0.0 3.2 0.00 0.00 0.00 50 1013.7
20260905231505 32 108 1.6 8.0 0.00 0.00 0.00 50 1013.6
20260905230008 32 86 4.8 8.0 0.00 0.00 0.00 47 1013.5
20260905224504 32 127 6.4 16.1 0.00 0.00 0.00 48 1013.5
20260905223004 33 84 11.3 27.4 0.00 0.00 0.00 46 1013.8
20260905221508 34 87 3.2 9.7 0.00 0.00 0.00 62 1013.5
20260905220009 32 120 4.8 8.0 0.00 0.00 0.00 64 1013.3
20260905214506 31 97 4.8 9.7 0.00 0.00 0.00 64 1013.5
20260905213004 30 122 4.8 6.4 0.00 0.00 0.00 63 1013.6
20260905211505 28 82 3.2 11.3 0.00 0.00 0.00 65 1013.7
20260905210011 28 113 12.9 46.7 0.00 0.00 0.00 56 1014.0
20260905204510 37 114 16.1 35.4 0.00 0.00 0.00 36 1014.0
20260905203014 38 248 0.0 11.3 0.00 0.00 0.00 32 1013.9
20260905201506 38 267 3.2 11.3 0.00 0.00 0.00 33 1014.0
20260905200009 38 70 3.2 9.7 0.00 0.00 0.00 33 1014.2
20260905194512 36 311 1.6 8.0 0.00 0.00 0.00 36 1014.5
20260905193025 37 35 4.8 12.9 0.00 0.00 0.00 35 1014.5
20260905191513 39 313 3.2 16.1 0.00 0.00 0.00 33 1014.8
20260905190012 39 99 4.8 9.7 0.00 0.00 0.00 32 1015.0
20260905184515 38 116 3.2 11.3 0.00 0.00 0.00 34 1015.3
20260905183019 37 203 4.8 8.0 0.00 0.00 0.00 36 1015.6
20260905181515 36 301 3.2 12.9 0.00 0.00 0.00 38 1015.7
20260905180017 36 46 1.6 16.1 0.00 0.00 0.00 38 1015.9
20260905174509 37 252 4.8 9.7 0.00 0.00 0.00 37 1016.1
20260905173011 36 167 3.2 8.0 0.00 0.00 0.00 38 1016.4
20260905171517 36 41 8.0 12.9 0.00 0.00 0.00 39 1016.5
20260905170021 36 290 3.2 8.0 0.00 0.00 0.00 39 1016.6
20260905164521 36 326 8.0 12.9 0.00 0.00 0.00 41 1016.8
20260905163023 35 73 0.0 9.7 0.00 0.00 0.00 43 1016.8
20260905161514 35 271 3.2 9.7 0.00 0.00 0.00 44 1017.1
20260905160027 34 353 3.2 8.0 0.00 0.00 0.00 47 1017.1